"Pseudo-MPEC" for C1ELN92

Created 2019 Nov 10 14:07:06 UT using Find_Orb

Click here for an explanation of pseudo-MPECs

 
 Astrometry: 
     C1ELN92  C2019 11 05.31923 03 19 44.07 +17 56 18.5    ~B58M 21.3 GVNEOCPG96
     C1ELN92  C2019 11 05.32436 03 19 43.58 +17 56 01.2    ~B58M 21.1 GVNEOCPG96
     C1ELN92  C2019 11 05.32949 03 19 42.95 +17 55 43.0    ~B58M 22.2 GVNEOCPG96
     C1ELN92  C2019 11 05.33461 03 19 42.40 +17 55 26.7    ~B58M 21.7 GVNEOCPG96
     C1ELN92  C2019 11 05.38566603 19 36.50 +17 52 25.3    ~B59q 21.4 GVNEOCPH01
     C1ELN92  C2019 11 05.38836503 19 36.22 +17 52 15.7    ~B59q 21.7 GVNEOCPH01
     C1ELN92  C2019 11 05.40120003 19 34.86 +17 51 30.6    ~B59q 21.7 GVNEOCPH01
     C1ELN92  C2019 11 05.40644703 19 34.32 +17 51 12.1    ~B59q 21.9 GVNEOCPH01

Station data:
(G96) Mt. Lemmon Survey  (N32.442754 W110.788720)  US/Arizona.  Observers T.
   A. Pruyne, B. M. Africano, E. J. Christensen, G. A. Farneth, D. C. Fuls,
   A. R. Gibbs, A. D. Grauer, H. Gröller, J. A. Johnson, R. A. Kowalski, S.
   M. Larson, G. J. Leonard, D. Rankin, R. L. Seaman, F. C. Shelly. 1.5-m
   reflector + 10K CCD.
(H01) Magdalena Ridge Observatory, Socorro  (N33.984833 W107.189333)  US/New
   Mexico.  Observers W. H. Ryan, E. V. Ryan. Measurer W. H. Ryan. 2.4-m
   f/8.9 reflector + CCD.

Orbital elements:  C1ELN92
   Perihelion 2020 Feb 7.199276 +/- 129 TT =  4:46:57 (JD 2458886.699276)
Epoch 2019 Nov  5.0 TT = JDT 2458792.5   Earth MOID: 0.0410   AutoNEOCP
M 274.36658979 +/- 90               (J2000 ecliptic)
n   0.90906654 +/- 0.159            Peri.  270.48555 +/- 100
a   1.05537207 +/- 0.123            Node   222.45890 +/- 1.1
e   0.0409446 +/- 0.15              Incl.    3.19256 +/- 11
P   1.08/396.00d           H 27.2   G  0.15   U 11.5  SR
q 1.01216022 +/- 0.201    Q 1.09858392 +/- 0.41
From 8 observations 2019 Nov. 5 (2.1 hr); mean residual 0".35
Residuals in arcseconds: 
191105 G96  .38-  .02-    191105 G96  .15-  .56+    191105 H01  .24-  .03-    
191105 G96  .65+  .11+    191105 H01  .40+  .08+    191105 H01  .38-  .02-    
191105 G96  .31-  .62-    191105 H01  .40+  .06-    

Ephemerides (geocentric):
Date (UTC) HH   RA              Dec         delta   r     elong  mag " sig PA
---- -- -- --  -------------   -----------  ------ ------ -----  --- ---- ---
2019 11 10 14  03 14 16.505   +12 43 07.18  .05999 1.0500 174.5 21.7 359' 101
2019 11 10 15  03 14 13.767   +12 40 32.17  .05997 1.0500 174.5 21.7 379' 101
2019 11 10 16  03 14 11.027   +12 37 57.09  .05996 1.0500 174.5 21.7 401' 101
2019 11 10 17  03 14 08.285   +12 35 21.95  .05994 1.0499 174.5 21.7 424' 101
2019 11 10 18  03 14 05.542   +12 32 46.74  .05992 1.0499 174.5 21.7 449' 101
2019 11 10 19  03 14 02.798   +12 30 11.46  .05990 1.0499 174.4 21.7 476' 101
2019 11 10 20  03 14 00.052   +12 27 36.12  .05989 1.0498 174.4 21.7 504' 102
2019 11 10 21  03 13 57.304   +12 25 00.71  .05987 1.0498 174.4 21.7 535' 102
2019 11 10 22  03 13 54.555   +12 22 25.24  .05985 1.0498 174.4 21.7 568' 102
2019 11 10 23  03 13 51.805   +12 19 49.71  .05984 1.0498 174.4 21.7 603' 102
2019 11 11 00  03 13 49.053   +12 17 14.11  .05982 1.0497 174.3 21.7 641' 103
2019 11 11 01  03 13 46.300   +12 14 38.45  .05980 1.0497 174.3 21.7 681' 103
2019 11 11 02  03 13 43.546   +12 12 02.73  .05979 1.0497 174.3 21.7 723' 104
2019 11 11 03  03 13 40.790   +12 09 26.95  .05977 1.0496 174.3 21.7 768' 104
2019 11 11 04  03 13 38.033   +12 06 51.11  .05976 1.0496 174.3 21.7 815' 105
2019 11 11 05  03 13 35.274   +12 04 15.21  .05974 1.0496 174.2 21.7 864' 106
2019 11 11 06  03 13 32.515   +12 01 39.25  .05972 1.0496 174.2 21.7 916' 107
2019 11 11 07  03 13 29.754   +11 59 03.23  .05971 1.0495 174.2 21.7 970' 109
2019 11 11 08  03 13 26.992   +11 56 27.16  .05969 1.0495 174.1 21.7  17d 110
2019 11 11 09  03 13 24.228   +11 53 51.02  .05968 1.0495 174.1 21.7  18d 113
2019 11 11 10  03 13 21.463   +11 51 14.84  .05966 1.0494 174.1 21.7  19d 116
2019 11 11 11  03 13 18.698   +11 48 38.59  .05964 1.0494 174.1 21.7  21d 120
2019 11 11 12  03 13 15.930   +11 46 02.29  .05963 1.0494 174.0 21.7  22d 125
2019 11 11 13  03 13 13.162   +11 43 25.94  .05961 1.0494 174.0 21.7  24d 130
2019 11 11 14  03 13 10.393   +11 40 49.53  .05960 1.0493 174.0 21.7  27d 135
2019 11 11 15  03 13 07.622   +11 38 13.07  .05958 1.0493 173.9 21.7  29d 140
2019 11 11 16  03 13 04.851   +11 35 36.56  .05957 1.0493 173.9 21.7  31d 143
2019 11 11 17  03 13 02.078   +11 33 00.00  .05955 1.0492 173.8 21.7  32d 146
2019 11 11 18  03 12 59.304   +11 30 23.39  .05954 1.0492 173.8 21.7  33d 148
2019 11 11 19  03 12 56.529   +11 27 46.72  .05952 1.0492 173.8 21.7  34d 149
2019 11 11 20  03 12 53.753   +11 25 10.01  .05951 1.0492 173.7 21.7  34d 151
2019 11 11 21  03 12 50.976   +11 22 33.25  .05949 1.0491 173.7 21.7  35d 152
2019 11 11 22  03 12 48.199   +11 19 56.44  .05948 1.0491 173.7 21.7  35d 153
2019 11 11 23  03 12 45.420   +11 17 19.58  .05946 1.0491 173.6 21.7  35d 154
2019 11 12 00  03 12 42.640   +11 14 42.68  .05945 1.0490 173.6 21.7  36d 154
2019 11 12 01  03 12 39.859   +11 12 05.73  .05944 1.0490 173.5 21.7  36d 155
2019 11 12 02  03 12 37.077   +11 09 28.73  .05942 1.0490 173.5 21.7  36d 156
2019 11 12 03  03 12 34.294   +11 06 51.69  .05941 1.0490 173.5 21.7  36d 156
2019 11 12 04  03 12 31.511   +11 04 14.61  .05939 1.0489 173.4 21.7  36d 157
2019 11 12 05  03 12 28.726   +11 01 37.48  .05938 1.0489 173.4 21.7  36d 157
2019 11 12 06  03 12 25.941   +10 59 00.31  .05937 1.0489 173.3 21.7  36d 158
2019 11 12 07  03 12 23.154   +10 56 23.10  .05935 1.0488 173.3 21.7  36d 158
2019 11 12 08  03 12 20.367   +10 53 45.84  .05934 1.0488 173.2 21.7  36d 159
2019 11 12 09  03 12 17.579   +10 51 08.55  .05932 1.0488 173.2 21.7  36d 159
2019 11 12 10  03 12 14.790   +10 48 31.22  .05931 1.0488 173.1 21.7  36d 159
2019 11 12 11  03 12 12.001   +10 45 53.85  .05930 1.0487 173.1 21.7  36d 160
2019 11 12 12  03 12 09.211   +10 43 16.43  .05928 1.0487 173.0 21.7  36d 160
2019 11 12 13  03 12 06.419   +10 40 38.99  .05927 1.0487 173.0 21.7  36d 160